Change the Weather History Date:

Sunday, April 21, 2013

  Actual Average Record
Temperature  
Mean Temperature 78 °F -  
Max Temperature 84 °F 84 °F 87 °F (2009)
Min Temperature 73 °F 69 °F 60 °F (1997)
Cooling Degree Days 14    
Growing Degree Days 28 (Base 50)    
Moisture  
Dew Point 69 °F    
Average Humidity 73    
Maximum Humidity 94    
Minimum Humidity 50    
Precipitation  
Precipitation 0.16 in 0.13 in - ()
Sea Level Pressure  
Sea Level Pressure 30.07 in    
Wind  
Wind Speed 7 mph ()    
Max Wind Speed 14 mph    
Max Gust Speed -    
Visibility 6.7 miles    
Events Rain    
Averages and records for this station are not official NWS values.
T = Trace of Precipitation, MM = Missing Value Source: Averaged Metar Reports

Daily Weather History Graph

Daily Weather History Graph

Search for Another Location

Airport or City:

Trip Planner

Search our weather history database for the weather conditions in past years. The results will help you decide how hot, cold, wet, or windy it might be!

Date:

Astronomy

Apr. 21, 2013 Rise Set
Actual Time 6:41 AM EDT 7:35 PM EDT
Civil Twilight 6:18 AM EDT 7:59 PM EDT
Nautical Twilight 5:50 AM EDT 8:26 PM EDT
Astronomical Twilight 5:22 AM EDT 8:55 PM EDT
Moon 3:43 PM EDT (4/21) 3:35 AM EDT (4/21)
Length of Visible Light 13h 40m
Length of Day
12h 53m
Waxing Gibbous, 79% of the Moon is Illuminated
Apr 21
Waxing Gibbous
Apr 25
Full
May 2
Last Quarter
May 9
New
May 18
First Quarter

Hourly Weather History & Observations

Time (EDT) Temp. Heat Index Dew Point Humidity Pressure Visibility Wind Dir Wind Speed Gust Speed Precip Events Conditions
12:00 AM 78.8 °F - 71.6 °F 78% 30.09 in 6.2 mi SSE 11.5 mph - N/A   Scattered Clouds
1:00 AM 78.8 °F - 71.6 °F 78% 30.08 in 6.2 mi SSE 5.8 mph - N/A   Scattered Clouds
2:00 AM 75.2 °F - 69.8 °F 83% 30.07 in - South 2.3 mph - N/A Rain Light Rain Showers
3:00 AM 75.2 °F - 69.8 °F 83% 30.06 in 6.2 mi SE 3.5 mph - N/A Rain Light Rain Showers
4:00 AM 77.0 °F - 69.8 °F 78% 30.05 in 6.2 mi SSE 10.4 mph - N/A   Scattered Clouds
5:00 AM 75 °F - 72 °F 89% 30.05 in 8 mi SE 13.8 mph - - Rain Light Rain Showers
5:00 AM 75.2 °F - 73.4 °F 94% 30.04 in 6.2 mi SE 13.8 mph - N/A   Scattered Clouds
6:00 AM 77.0 °F - 69.8 °F 78% 30.06 in 6.2 mi SE 11.5 mph - N/A   Scattered Clouds
7:00 AM 77.0 °F - 69.8 °F 78% 30.08 in 6.2 mi SE 5.8 mph - N/A   Mostly Cloudy
8:00 AM 78 °F - 71 °F 73% 30.09 in 8 mi SE 8.1 mph - - Rain Light Rain Showers
8:00 AM 77.0 °F - 71.6 °F 83% 30.09 in 6.2 mi SE 8.1 mph - N/A Rain Light Rain Showers
9:00 AM 75.2 °F - 69.8 °F 83% 30.10 in 6.2 mi ENE 3.5 mph - N/A Rain Light Rain
10:00 AM 77.0 °F - 71.6 °F 83% 30.12 in 6.2 mi ENE 2.3 mph - N/A   Mostly Cloudy
11:00 AM 79 °F - 69 °F 63% 30.11 in 8 mi ESE 9.2 mph - -   Partly Cloudy
11:00 AM 78.8 °F - 68.0 °F 69% 30.10 in 6.2 mi ESE 9.2 mph - N/A   Mostly Cloudy
12:00 PM 78.8 °F - 69.8 °F 74% 30.10 in 6.2 mi SE 6.9 mph - N/A   Mostly Cloudy
1:00 PM 80.6 °F 83.2 °F 68.0 °F 65% 30.07 in 6.2 mi SSE 8.1 mph - N/A   Scattered Clouds
2:00 PM 79 °F - 68 °F 60% 30.06 in 8 mi SSE 10.4 mph - - Rain Light Rain Showers
2:00 PM 78.8 °F - 68.0 °F 69% 30.06 in 6.2 mi SSE 10.4 mph - N/A Rain Light Rain Showers
3:00 PM 78.8 °F - 68.0 °F 69% 30.06 in 6.2 mi SSE 4.6 mph - N/A Rain Light Rain Showers
4:00 PM 80.6 °F 83.2 °F 68.0 °F 65% 30.04 in 6.2 mi SSE 3.5 mph - N/A   Mostly Cloudy
5:00 PM 84 °F - 68 °F 50% 30.02 in 8 mi East 3.5 mph - -   Partly Cloudy
5:00 PM 84.2 °F 87.3 °F 68.0 °F 58% 30.02 in 6.2 mi East 3.5 mph - N/A   Mostly Cloudy
6:00 PM 82.4 °F 85.4 °F 68.0 °F 62% 30.01 in 6.2 mi East 3.5 mph - N/A   Mostly Cloudy
7:00 PM 78.8 °F - 66.2 °F 65% 30.04 in 6.2 mi ESE 4.6 mph - N/A   Mostly Cloudy
8:00 PM 78 °F - 68 °F 65% 30.05 in 9 mi East 5.8 mph - -   Partly Cloudy
8:00 PM 78.8 °F - 68.0 °F 69% 30.05 in 6.2 mi East 5.8 mph - N/A   Mostly Cloudy
9:00 PM 77.0 °F - 68.0 °F 74% 30.08 in 6.2 mi East 3.5 mph - N/A   Mostly Cloudy
10:00 PM 77.0 °F - 68.0 °F 74% 30.09 in 6.2 mi East 3.5 mph - N/A   Mostly Cloudy
11:00 PM 77 °F - 70 °F 74% 30.09 in 8 mi East 4.6 mph - -   Mostly Cloudy
11:00 PM 77.0 °F - 69.8 °F 78% 30.08 in 6.2 mi East 4.6 mph - N/A   Mostly Cloudy